Home > Weather > Kolonia > Past weeks

Flag for Micronesia Past Weather in Kolonia, Pohnpei, Micronesia — Yesterday and Last 2 Weeks

Now
81 °F

Partly cloudy.


Feels Like: 88 °F
Forecast: 81 / 88 °F
Wind: 5 mph from Southeast

Location: Pohnpei

Current Time: May 24, 2016 at 10:54:00 PM

Latest Report: May 24, 2016 at 9:53 PM


Visibility: 15 mi

Pressure: 29.93 "Hg

Humidity: 88%

Dew Point: 77 °F

Location of KoloniaLocation

Past Weather in Kolonia — Graph

°F

Kolonia Temperature Yesterday

Maximum temperature yesterday: 89 °F (at 9:53 AM)
Minimum temperature yesterday: 76 °F (at 5:55 AM)
Average temperature yesterday: 81 °F

High & Low Weather Summary for the Past Weeks

 TemperatureHumidityPressure
High89 °F (May 11, 1:53 PM)96% (May 10, 5:54 AM)29.93 "Hg (May 10, 5:54 AM)
Low74 °F (May 15, 3:52 AM)67% (May 19, 1:54 PM)29.75 "Hg (May 15, 3:56 PM)
Average82 °F84%29.84 "Hg
* Reported May 9 8:52 PM — May 24 8:53 PM, Kolonia, Weather by CustomWeather, © 2016

Note: Actual official high and low records may vary slightly from our data, if they occured in-between our weather recording intervals... More about our weather records

Advertising

Kolonia Weather History for the Previous 24 Hours

Scroll right to see more
 ConditionsComfort  
Time TempWeatherWind HumidityBarometerVisibility
8:53 PM
Tue, May 24
81 °FOvercast.3 mph88%29.93 "Hg15 mi
7:52 PM83 °FMostly cloudy.3 mph81%29.91 "Hg15 mi
6:52 PM82 °FOvercast.3 mph84%29.88 "Hg15 mi
5:53 PM84 °FCloudy.7 mph77%29.87 "Hg15 mi
4:51 PM85 °FCloudy.7 mph77%29.85 "Hg15 mi
3:53 PM85 °FMostly cloudy.7 mph77%29.84 "Hg15 mi
2:50 PM86 °FMostly cloudy.6 mph78%29.85 "Hg15 mi
1:55 PM86 °FMostly cloudy.7 mph75%29.87 "Hg15 mi
12:52 PM87 °FMostly cloudy.6 mph72%29.88 "Hg15 mi
11:55 AM85 °FMostly cloudy.7 mph80%29.90 "Hg15 mi
10:54 AM85 °FMostly cloudy.9 mph81%29.90 "Hg15 mi
9:51 AM82 °FMostly cloudy.6 mph86%29.91 "Hg15 mi
8:54 AM80 °FMostly cloudy.2 mph92%29.92 "Hg15 mi
7:57 AM79 °FMostly cloudy.3 mph94%29.92 "Hg15 mi
6:56 AM79 °FMostly cloudy.3 mph90%29.91 "Hg15 mi
5:55 AM79 °FMostly cloudy.3 mph89%29.89 "Hg15 mi
4:58 AM78 °FMostly cloudy.3 mph91%29.88 "Hg15 mi
3:51 AM78 °FSprinkles. Mostly cloudy.3 mph94%29.87 "Hg13 mi
2:52 AM78 °FOvercast.3 mph95%29.86 "Hg15 mi
1:51 AM78 °FOvercast.3 mph95%29.88 "Hg15 mi
12:50 AM79 °FMostly cloudy.5 mph96%29.90 "Hg15 mi
11:52 PM
Mon, May 23
82 °FOvercast.8 mph86%29.92 "Hg15 mi
10:51 PM80 °FMostly cloudy.5 mph86%29.93 "Hg15 mi
10:04 PM81 °FMostly cloudy.5 mph84%29.93 "Hg15 mi
Weather by CustomWeather, © 2016

See weather overviewHow to use our weather pages